Flag for Hungary Weather past 2 weeks in Miskolc, Hungary

Now
28 °F

Passing clouds.


Feels Like: 28 °F
Forecast: 26 / 38 °F
Wind: No wind

Location: Miskolc

Current Time: Feb 2, 2015 at 12:09:41 AM

Latest Report: Feb 1, 2015 at 11:00 PM


Visibility: 6 mi

Pressure: 29.38 "Hg

Humidity: 89%

Dew point: 25 °F

Location of MiskolcLocation

Historic Weather in Miskolc — Graph

°F

Miskolc temperature yesterday

Maximum temperature yesterday: 38 °F (at 3:00 PM)
Minimum temperature yesterday: 26 °F (at 2:00 AM)
Average temperature yesterday: 30 °F

Past Weeks' High & Low Weather Summary

 TemperatureHumidityPressure
High48 °F (Jan 23, 1:00 PM)94% (Jan 19, 7:00 AM)30.25 "Hg (Jan 19, 7:00 AM)
Low24 °F (Jan 28, 7:00 AM)56% (Jan 31, 2:00 PM)28.73 "Hg (Jan 31, 1:00 AM)
Average37 °F87%29.80 "Hg
* Reported Jan 17 11:00 PM — Feb 1 10:00 PM, Miskolc, Weather by CustomWeather, © 2014

Note: Actual official high and low records may vary slightly from our data, if they occured in-between our weather recording intervals... More about our weather records

Advertising

Miskolc weather history for previous 24 hours

 ConditionsComfort  
Time TempWeatherWind HumidityBarometerVisibility
10:00 PM
Feb 1
28 °FPassing clouds.No wind88%29.38 "Hg7 mi
9:00 PM29 °FPassing clouds.1 mph87%29.35 "Hg7 mi
8:00 PM30 °FPassing clouds.1 mph85%29.35 "Hg7 mi
7:00 PM32 °FOvercast.No wind82%29.35 "Hg7 mi
6:00 PM33 °FOvercast.1 mph77%29.32 "Hg9 mi
5:00 PM36 °FOvercast.2 mph70%29.29 "Hg9 mi
4:00 PM37 °FOvercast.2 mph71%29.29 "Hg9 mi
3:00 PM38 °FOvercast.2 mph65%29.29 "Hg9 mi
2:00 PM37 °FOvercast.2 mph71%29.29 "Hg9 mi
1:00 PM35 °FOvercast.3 mph81%29.29 "Hg5 mi
12:00 PM32 °FFog.2 mph92%29.32 "Hg5 mi
11:00 AM29 °FFog.No wind93%29.35 "Hg1 mi
10:00 AM28 °FFog.1 mph92%29.35 "Hg1 mi
9:00 AM28 °FFog.1 mph93%29.32 "Hg1 mi
8:00 AM27 °FFog.1 mph93%29.32 "Hg1 mi
7:00 AM26 °FFog.1 mph92%29.32 "Hg1 mi
6:00 AM26 °FFog.1 mph93%29.32 "Hg1 mi
5:00 AM27 °FFog.1 mph93%29.32 "Hg0 mi
4:00 AM27 °FFog.1 mph93%29.32 "Hg0 mi
3:00 AM27 °FFog.1 mph91%29.32 "Hg1 mi
2:00 AM26 °FClear.No wind91%29.32 "Hg4 mi
1:00 AM27 °FPassing clouds.No wind91%29.32 "Hg4 mi
12:00 AM28 °FClear.No wind91%29.32 "Hg5 mi
Weather by CustomWeather, © 2014

See weather overviewHow to use our weather pages